Weather in Mount-Hagen

Papua New Guinea     5°53′54″S   144°08′38″E
temp.,
°C
wind,
m/s
gust,
m/s
humid.,
%
clouds,
%
prec.,
mm/h
press.,
hPa
HPBL,
m
16 may, sun
sun1601:00+16s119989 1.4 101230
04:00+15sse01100100 3.2 101258
07:00+15ne009894 1.2 101339
10:00+19w1186100 1.8 1013508
13:00+20e1185100 2.8 1010682
16:00+18ene019698 6.8 101057
19:00+16wnw0099100 6.0 101222
22:00+15nnw1199100 23.0 101529
17 may, mon
mon1701:00+15nne1199100 4.0 101336
04:00+14nne119868 4.3 101238
07:00+14n119886 0.0 101540
10:00+20e017754 0.5 1014553
13:00+20sse2280100 2.3 1011858
16:00+19sse129492 5.9 1010246
19:00+16nne009858 2.5 101315
22:00+15n119780 3.3 101520
18 may, tue
tue1801:00+15n119781 0.0 101418
04:00+14n119898 0.1 101319
07:00+14n119755 0.0 101534
10:00+22sw0164100 0.0 1013829
13:00+23sse2158100 0.4 10091458
16:00+20sse238669 1.7 1008295
19:00+16ese009742 1.8 101211
22:00+16n119885 2.1 101418
19 may, wed
wed1901:00+15n1198100 0.2 101218
04:00+14n1198100 0.3 101224
07:00+14n129898 0.0 101443
10:00+21n117197 0.3 1012842
13:00+22se116855 1.6 1009995
16:00+20sse019294 5.5 1009268
19:00+16nne119899 3.1 101214
22:00+16n119999 3.9 101323
20 may, thu
thu2001:00+16n1199100 0.6 101233
04:00+16n1199100 0.8 101130
07:00+15n119875 0.0 101360
10:00+21n127419 0.3 1012732
13:00+22sse117551 2.1 1008941
16:00+20sse119279 6.8 1008306
19:00+16ne009999 4.9 101116
22:00+16n119993 7.7 101327